[[{"header":{"parameterUnit":"m.s-1","parameterCategory":1,"la1":30.2991,"la2":30.254,"lo1":-89.0895,"lo2":-89.0444,"dy":0.0017,"dx":0.0017,"nx":28,"ny":28,"refTime":"2023-09-24T21:00:00:Z","depth":0,"parameterNumber":2,"parameterNumberName":"U-component_of_WINDS"},"data":[0,0,0,0,0,0,0,0,0,0,0,0,0,0,0,0,0,0,0,0,0,0,0,0,0,0,0,0,0,0,0,0,0,0,0,0,0,0,0,0,0,0,0,0,0,0,0,0,0,0,0,0,0,0,0,0,0,0,1.1022,1.1022,0,1.1004,1.1003,1.1003,1.0988,1.0988,1.0988,1.0988,1.0966,1.0966,1.0966,0,0,0,0,0,0,0,0,0,0,0,0,0,1.104,1.104,1.1022,1.1022,1.1022,1.1004,1.1003,1.1003,1.0988,1.0988,1.0988,1.0988,1.0967,1.0966,1.0966,0,0,0,0,0,0,0,0,0,0,0,0,0,1.1028,1.104,1.1022,1.1012,1.1011,1.1004,1.1003,1.1003,1.0988,1.0988,1.0988,1.0988,1.0967,1.0966,1.0965,1.0966,0,0,1.0963,1.0963,0,0,0,0,0,0,0,0,1.1029,1.1028,1.1014,1.1013,1.1012,1.0998,1.1002,1.099,1.0988,1.0997,1.0988,1.0988,1.0977,1.0975,1.0972,1.0965,1.0964,1.0963,1.0963,1.0963,1.0963,0,0,0,0,0,0,0,1.103,1.1028,1.1015,1.1014,1.1012,1.1007,1.1005,1.1,1.0988,1.0996,1.0995,1.0993,1.0976,1.0973,1.0972,1.0963,1.0963,1.0963,1.0962,1.0962,1.0951,1.0952,0,0,0,0,0,0,1.1033,1.1029,1.1015,1.1014,1.102,1.1007,1.1005,1.1003,1.0988,1.0986,1.0993,1.0993,1.0974,1.0973,1.0971,1.0968,1.0963,1.0962,1.0962,1.0951,1.0951,1.0952,0,0,0,0,0,0,1.1033,1.1032,1.1016,1.1021,1.1019,1.1007,1.1005,1.1002,1.0999,1.0986,1.0984,1.0992,1.0974,1.0972,1.0967,1.0967,1.0962,1.0961,1.0951,1.0951,1.0952,1.0964,0,0,0,0,0,0,1.1034,1.1032,1.1033,1.1021,1.1019,1.1013,1.1005,1.1002,1.0998,1.0997,1.0985,1.0982,1.0974,1.0968,1.0966,1.0966,1.0961,1.0951,1.0951,1.0951,1.0964,1.0965,1.0966,0,0,0,0,0,1.1034,1.1037,1.1033,1.1032,1.102,1.1014,1.1012,1.1002,1.0999,1.0999,1.099,1.0983,1.0968,1.0967,1.0965,1.0965,1.0951,1.0951,1.0951,1.0963,1.0965,1.0966,0,0,0,0,0,0,1.1049,1.1036,1.1031,1.1031,1.1023,1.1011,1.1011,1.1005,1.0998,1.0997,1.0984,1.0982,1.0977,1.0971,1.0971,1.0963,1.0958,1.0958,1.0968,1.0969,1.097,1.0971,1.096,0,0,0,0,0,1.1053,1.105,1.1037,1.1038,1.1035,1.1024,1.102,1.1014,1.1005,1.1002,1.0993,1.0984,1.0977,1.0973,1.0966,1.0962,1.0958,1.0961,1.0962,1.0963,1.0963,1.0958,1.0959,1.0952,1.0952,1.0952,0,0,1.1059,1.1051,1.105,1.1041,1.1035,1.103,1.1021,1.1017,1.1013,1.1001,1.0995,1.0988,1.0977,1.0972,1.097,1.0967,1.0964,1.0964,1.0964,1.0964,1.0959,1.0959,1.096,1.0953,1.0953,1.0952,0,0,1.1069,1.1064,1.1063,1.1056,1.1046,1.1038,1.1038,1.1026,1.1021,1.1015,1.1005,1.0999,1.0988,1.098,1.0974,1.0978,1.097,1.0976,1.0981,1.0976,1.0977,1.0977,1.0977,1.0977,1.0975,1.0976,1.0976,0,1.1078,1.1072,1.1063,1.1059,1.1054,1.1043,1.104,1.1034,1.1022,1.1018,1.1015,1.0999,1.0991,1.0983,1.0983,1.098,1.0977,1.0977,1.0978,1.0978,1.0978,1.0977,1.0977,1.0976,1.0976,1.0976,1.0976,0,1.1083,1.1079,1.1079,1.1068,1.1063,1.106,1.1048,1.1044,1.1036,1.1028,1.1021,1.101,1.1,1.0997,1.0991,1.0987,1.0986,1.098,1.0975,1.098,1.0979,1.0978,1.0977,1.0977,1.0977,1.0976,0,0,1.1103,1.1085,1.1085,1.1079,1.1066,1.1062,1.1057,1.1047,1.1043,1.1034,1.1028,1.1018,1.1012,1.1006,1.0997,1.0994,1.0994,1.0988,1.0988,1.0989,1.0987,1.0991,1.0991,1.0989,1.0989,1.0989,1.0988,0,1.1109,1.1101,1.1091,1.1086,1.108,1.1068,1.1064,1.1054,1.1046,1.1039,1.1029,1.1021,1.1015,1.1011,1.1006,1.0995,1.0994,1.0995,1.0982,1.0982,1.0985,1.0991,1.0995,1.0994,1.0988,1.0988,1.0987,0,1.1116,1.1108,1.1103,1.1088,1.1085,1.1082,1.107,1.1064,1.1052,1.1046,1.1038,1.1029,1.1021,1.1016,1.1003,1.1005,1.0998,1.0992,1.0991,1.0989,1.0985,1.0988,1.0994,1.0994,1.0987,1.0987,1.0987,0,1.1129,1.1117,1.1111,1.1107,1.109,1.1087,1.108,1.1068,1.1062,1.1051,1.1047,1.1035,1.1029,1.1019,1.1006,1.1004,1.0994,1.0989,1.0987,1.0987,1.0986,1.0986,1.099,1.0983,1.0983,1.0983,1.0983,0,1.1137,1.1134,1.1117,1.1113,1.1108,1.1095,1.109,1.1081,1.107,1.1063,1.1052,1.1045,1.1029,1.102,1.1009,1.0999,1.0997,1.099,1.0987,1.0991,1.0991,1.0986,1.0986,1.0983,1.0983,1.0983,1.0983,0,1.1151,1.114,1.1132,1.1117,1.1113,1.1109,1.1095,1.109,1.108,1.1071,1.1069,1.1053,1.1041,1.1027,1.1011,1.1004,1.0994,1.099,1.0998,1.0997,1.0995,1.0995,1.0996,1.0994,1.0989,1.0989,1.0989,0,1.1156,1.1153,1.1137,1.1132,1.1125,1.1117,1.1111,1.1097,1.109,1.1075,1.1071,1.1059,1.1048,1.103,1.1016,1.1002,1.0998,1.0999,1.0996,1.0998,1.0996,1.0996,1.0995,1.0999,1.1,1.1,1.1,0,1.1167,1.1161,1.1152,1.1141,1.1134,1.1124,1.1114,1.111,1.1094,1.1087,1.1075,1.1067,1.105,1.1036,1.1021,1.1011,1.1002,1.1001,1.0999,1.1003,1.1007,1.1003,1.1,1.1001,1.1001,1.1001,1.1001,1.1001,1.1175,1.1171,1.1159,1.1149,1.114,1.113,1.1124,1.1113,1.1104,1.1089,1.1081,1.1069,1.1054,1.1033,1.1023,1.1012,1.1009,1.1007,1.1007,1.1006,1.1007,1.1009,1.1009,1.1009,1.1009,1.1009,1.1009,0,1.1184,1.1175,1.1166,1.1152,1.1144,1.1136,1.1124,1.1117,1.1107,1.1095,1.1084,1.1069,1.1056,1.104,1.1025,1.1019,1.1014,1.1015,1.1015,1.1013,1.1011,1.1013,1.1019,1.1019,1.1019,1.1019,1.1019,1.1019,1.1187,1.1179,1.1171,1.1158,1.1148,1.1137,1.113,1.112,1.111,1.1094,1.1083,1.1073,1.1059,1.1042,1.1029,1.1024,1.1019,1.1021,1.1015,1.1014,1.1013,1.1012,1.1014,1.102,1.102,1.1017,1.1017,1.1017]},{"header":{"parameterUnit":"m.s-1","parameterCategory":1,"la1":30.2991,"la2":30.254,"lo1":-89.0895,"lo2":-89.0444,"dy":0.0017,"dx":0.0017,"nx":28,"ny":28,"refTime":"2023-09-24T21:00:00:Z","depth":0,"parameterNumber":3,"parameterNumberName":"V-component_of_WINDS"},"data":[0,0,0,0,0,0,0,0,0,0,0,0,0,0,0,0,0,0,0,0,0,0,0,0,0,0,0,0,0,0,0,0,0,0,0,0,0,0,0,0,0,0,0,0,0,0,0,0,0,0,0,0,0,0,0,0,0,0,3.3202,3.3204,0,3.3333,3.3334,3.3336,3.3325,3.3323,3.3321,3.3319,3.3446,3.3451,3.3457,0,0,0,0,0,0,0,0,0,0,0,0,0,3.2935,3.294,3.3202,3.3204,3.3205,3.3332,3.3334,3.3336,3.3325,3.3323,3.332,3.3318,3.3445,3.3451,3.3457,0,0,0,0,0,0,0,0,0,0,0,0,0,3.3057,3.2942,3.3202,3.3215,3.3218,3.3332,3.3334,3.3336,3.3325,3.3323,3.332,3.3317,3.3443,3.345,3.3458,3.3565,0,0,3.3482,3.3485,0,0,0,0,0,0,0,0,3.305,3.3066,3.3212,3.3215,3.3218,3.331,3.3287,3.3413,3.3326,3.3284,3.3319,3.3315,3.3403,3.3414,3.3444,3.3571,3.3577,3.3483,3.3487,3.3491,3.3493,0,0,0,0,0,0,0,3.3041,3.3061,3.3253,3.3214,3.3217,3.3212,3.3226,3.3311,3.3358,3.3288,3.3287,3.3303,3.3404,3.3437,3.3447,3.3579,3.3482,3.3489,3.3494,3.3497,3.3796,3.3799,0,0,0,0,0,0,3.3031,3.3054,3.3249,3.3257,3.3125,3.3219,3.3235,3.3283,3.3357,3.3366,3.3306,3.3302,3.3425,3.3438,3.3452,3.358,3.3491,3.3498,3.3502,3.3793,3.3797,3.38,0,0,0,0,0,0,3.3025,3.3048,3.3244,3.3156,3.318,3.3227,3.3281,3.3287,3.332,3.3371,3.3379,3.3331,3.3423,3.3441,3.3537,3.3585,3.3501,3.3509,3.3789,3.3794,3.3799,3.384,0,0,0,0,0,0,3.3018,3.3046,3.309,3.3157,3.3185,3.333,3.3284,3.3292,3.3335,3.3331,3.3397,3.3405,3.3422,3.3525,3.3545,3.3594,3.3515,3.3785,3.3791,3.3797,3.3834,3.3845,3.3855,0,0,0,0,0,3.3008,3.3095,3.3092,3.3116,3.3241,3.3332,3.3348,3.3368,3.3339,3.3381,3.3413,3.3403,3.3576,3.3535,3.3557,3.3609,3.3782,3.379,3.3797,3.383,3.3843,3.3855,0,0,0,0,0,0,3.3031,3.3105,3.3102,3.3214,3.3267,3.333,3.3385,3.3382,3.3443,3.3438,3.3457,3.3472,3.3568,3.3598,3.3551,3.3715,3.3675,3.3687,3.3692,3.3706,3.3716,3.3706,3.3521,0,0,0,0,0,3.305,3.3121,3.318,3.3273,3.33,3.3338,3.3379,3.3389,3.3444,3.3466,3.3505,3.3557,3.3623,3.3666,3.373,3.3838,3.3851,3.3885,3.3895,3.3903,3.3913,3.397,3.3985,3.3824,3.3824,3.3824,0,0,3.3088,3.3137,3.318,3.3279,3.3321,3.3391,3.3357,3.3433,3.3484,3.3477,3.357,3.3601,3.366,3.3762,3.3809,3.379,3.396,3.3913,3.3919,3.3924,3.3979,3.3994,3.4008,3.3829,3.3829,3.3828,0,0,3.3194,3.3239,3.332,3.3364,3.3429,3.3453,3.3472,3.3536,3.3556,3.3651,3.3646,3.3706,3.382,3.3861,3.3897,3.4016,3.4008,3.4036,3.4089,3.4144,3.4157,3.4168,3.4208,3.4223,3.4046,3.4046,3.4046,0,3.3232,3.3341,3.3362,3.3439,3.3481,3.3479,3.3559,3.36,3.3681,3.3709,3.3687,3.3829,3.3868,3.3979,3.4008,3.4038,3.4058,3.4028,3.4154,3.4165,3.4176,3.4215,3.423,3.4049,3.4048,3.4048,3.4048,0,3.3384,3.3458,3.3516,3.3597,3.3645,3.3723,3.3754,3.38,3.3805,3.3831,3.3925,3.3972,3.4044,3.4071,3.4077,3.4182,3.4168,3.415,3.4109,3.4194,3.423,3.4245,3.4053,3.4052,3.4051,3.405,0,0,3.3508,3.3599,3.362,3.3655,3.3726,3.3783,3.3859,3.3931,3.3969,3.4025,3.4088,3.4183,3.4166,3.4207,3.4217,3.4266,3.4354,3.4242,3.4243,3.4259,3.4469,3.4482,3.4499,3.4349,3.4352,3.4355,3.4464,0,3.362,3.3759,3.3779,3.39,3.3967,3.3965,3.4031,3.408,3.4105,3.4164,3.419,3.4257,3.4231,3.4255,3.4303,3.4333,3.4396,3.4326,3.4405,3.4408,3.439,3.4518,3.4532,3.4633,3.4478,3.4481,3.4483,0,3.3769,3.383,3.3958,3.4018,3.4046,3.4106,3.4172,3.423,3.4284,3.4298,3.4343,3.4347,3.4423,3.438,3.4483,3.4434,3.4468,3.4487,3.4491,3.4499,3.445,3.4527,3.4666,3.468,3.4505,3.4504,3.4502,0,3.3844,3.3959,3.4049,3.408,3.4152,3.4194,3.4225,3.4277,3.4318,3.4375,3.4401,3.4466,3.4501,3.4549,3.4569,3.4536,3.467,3.4629,3.4682,3.4682,3.471,3.4708,3.4854,3.4734,3.4733,3.4733,3.4733,0,3.3966,3.4044,3.4084,3.414,3.4226,3.4247,3.4331,3.436,3.4406,3.4465,3.4466,3.4521,3.4544,3.4602,3.4617,3.4699,3.4715,3.4727,3.473,3.4727,3.4725,3.4748,3.4741,3.4737,3.4736,3.4735,3.4735,0,3.4065,3.4096,3.4194,3.4255,3.4271,3.4332,3.4382,3.4434,3.4458,3.4533,3.4551,3.4589,3.4657,3.4681,3.4763,3.4774,3.4868,3.4866,3.485,3.4851,3.4902,3.4896,3.5067,3.509,3.4956,3.4957,3.4958,0,3.4141,3.4201,3.4267,3.4308,3.4341,3.4407,3.4449,3.447,3.4514,3.4579,3.4622,3.469,3.4746,3.4853,3.4886,3.4948,3.4946,3.5002,3.4956,3.4949,3.4945,3.4941,3.4946,3.501,3.5012,3.5013,3.5014,0,3.427,3.4282,3.4344,3.4411,3.4461,3.4514,3.4566,3.4598,3.4627,3.4675,3.4745,3.4788,3.4872,3.4938,3.5001,3.5031,3.5026,3.5028,3.5044,3.504,3.5028,3.5033,3.4872,3.5024,3.5023,3.5022,3.5022,3.5021,3.4359,3.4411,3.4466,3.4534,3.4575,3.4622,3.4674,3.4705,3.4764,3.4836,3.4844,3.4918,3.4968,3.5053,3.5085,3.5141,3.5126,3.5148,3.5154,3.5159,3.5162,3.502,3.5153,3.5153,3.5153,3.5152,3.5152,0,3.4487,3.4522,3.4584,3.4657,3.4709,3.4702,3.4758,3.4802,3.4868,3.4916,3.497,3.5049,3.5113,3.515,3.5213,3.5251,3.5251,3.5267,3.5264,3.527,3.5173,3.5153,3.5266,3.5266,3.5266,3.5266,3.5266,3.5266,3.456,3.4648,3.4665,3.4772,3.4805,3.488,3.4912,3.4954,3.4992,3.5081,3.5135,3.5159,3.5202,3.5268,3.5325,3.5334,3.5356,3.5374,3.5381,3.5289,3.5277,3.5266,3.5247,3.5379,3.5379,3.5473,3.5474,3.5475]}]]